Location: Caltech
(34.1382°N, 118.1253°W)
Time: 17:30:20
(UTC-07:00)

Cosmos 1833 - Visible Passes

Search period start: 27 March 2017 00:00
Search period end: 06 April 2017 00:00
Orbit: 831 x 868 km, 70.9° (Epoch: 26 March)

Date Brightness Start Highest point End Pass type
(mag) Time Alt. Az. Time Alt. Az. Time Alt. Az.
27 Mar 6.6 22:38:27 10° N 22:39:23 15° N 22:39:23 15° N visible
28 Mar 6.4 22:25:45 10° N 22:27:11 18° N 22:27:11 18° N visible
29 Mar 6.1 22:13:02 10° N 22:15:01 21° N 22:15:01 21° N visible
30 Mar 5.8 22:00:21 10° N 22:02:52 26° N 22:02:52 26° N visible
31 Mar 5.5 21:47:38 10° N 21:50:47 31° NNE 21:50:47 31° NNE visible
01 Apr 5.1 21:34:57 10° N 21:38:44 36° NNE 21:38:44 36° NNE visible
01 Apr 7.0 23:20:12 10° NW 23:20:44 12° WNW 23:20:44 12° WNW visible
02 Apr 4.8 21:22:14 10° N 21:26:43 42° NE 21:26:43 42° NE visible
02 Apr 6.8 23:07:28 10° NW 23:08:43 14° WNW 23:08:43 14° WNW visible
03 Apr 4.6 21:09:32 10° N 21:14:46 45° ENE 21:14:46 45° ENE visible
03 Apr 6.6 22:54:44 10° NW 22:56:46 17° WNW 22:56:46 17° WNW visible
04 Apr 4.5 20:56:49 10° N 21:02:13 45° ENE 21:02:53 43° E visible
04 Apr 6.4 22:42:00 10° NW 22:44:53 19° W 22:44:53 19° W visible
05 Apr 4.6 20:44:08 10° N 20:49:31 44° ENE 20:51:03 36° ESE visible
05 Apr 6.2 22:29:16 10° NW 22:33:05 21° W 22:33:05 21° W visible
